{"data":{"norad_id":61604,"epoch":"2026-09-19T13:57:44.852832Z","epoch_age_seconds":97713,"freshness":"FRESH","line1":"1 61604U 24188L   26262.58176913  .00000542  00000+0  14923-2 0  9999","line2":"2 61604  87.8965   2.3134 0001646  62.6910 297.4385 13.11416439 96844","mean_motion":13.11416439,"eccentricity":0.0001646,"inclination_deg":87.8965,"raan_deg":2.3134,"arg_perigee_deg":62.691,"mean_anomaly_deg":297.4385,"bstar":0.0014923,"rev_number":9684,"period_min":109.80493740783,"perigee_km":1216.4343799889,"apogee_km":1218.9349244768,"semimajor_km":7595.8216522329,"source":"CELESTRAK","updated_at":"2026-09-20T09:00:44.800196Z"}}